Location: Chinnakomira
(16.9706°N, 80.5010°E)
Time: 15:22:36
(UTC+00:00)

Daily predictions for brighter satellites

Satellite Brightness Start Highest point End
(mag) Time Altitude Azimuth Time Altitude Azimuth Time Altitude Azimuth
IRS-P3 4.2 12:52:55 10° SSE 12:58:09 63° ENE 13:03:23 10° N
Cosmos 1844 Rocket 4.0 12:54:17 10° SE 12:58:10 19° ESE 13:02:02 10° ENE
Meteor 1-27 4.5 12:54:16 10° N 12:59:55 51° E 13:05:32 10° SSE
SWIFT 1.6 12:58:44 10° WSW 13:01:58 82° SSE 13:05:13 10° E
Helios 1A Rocket 3.6 13:01:53 10° NE 13:04:25 21° E 13:06:56 10° SSE
Cosmos 2285 Rocket 4.0 12:58:34 10° N 13:04:57 82° ENE 13:11:16 10° SSE
CZ-2D R/B 4.0 13:03:43 10° SE 13:07:11 32° ENE 13:10:43 10° NNE
SeaSat 1 3.6 13:04:28 10° ESE 13:08:05 21° ENE 13:11:42 10° NNE
Cosmos 405 Rocket 4.2 13:08:04 10° E 13:08:22 10° E 13:08:40 10° E
GPS 2-17 Rocket1 4.2 13:07:54 10° SW 13:11:39 29° SSE 13:15:28 10° E
Aureole 3 Rocket 2.9 13:08:50 10° NNW 13:11:48 59° W 13:15:07 10° S
Milstar 3 3.8 13:06:48 10° WNW 13:13:45 60° SSW 13:25:02 10° SE
SAR-Lupe-1 3.9 13:12:19 10° SSE 13:15:51 82° ENE 13:19:24 10° N
Atlas Centaur 2 3.4 13:09:50 10° NW 13:17:35 46° NNE 13:23:49 13° E
FALCON 9 R/B 3.9 13:11:05 10° WNW 13:17:57 85° SSW 13:48:40 10° ESE
PSLV R/B 4.1 13:14:32 10° SE 13:18:13 32° ENE 13:21:51 10° NNE
CARTOSAT-1 4.0 13:15:22 10° SE 13:19:12 35° ENE 13:23:01 10° N
Resurs 1-3 3.5 13:17:57 10° SSE 13:22:14 84° ENE 13:26:31 10° N
Cosmos 2150 Rocket 4.2 13:18:33 10° N 13:23:27 46° ENE 13:28:22 10° SSE
SEDSat Delta rocket 2.7 13:21:33 10° WNW 13:25:51 80° NNE 13:29:19 14° ESE
Skynet4D Del rocket 4.3 13:20:13 10° WNW 13:28:08 78° NNE 13:34:15 14° ESE
Cosmos 2298 Rocket 4.1 13:25:35 10° N 13:30:43 52° ENE 13:35:51 10° SSE
Meteor 2-3 Rocket 4.4 13:29:40 10° SSE 13:34:29 30° E 13:39:21 10° NNE
Cosmos 1464 Rocket 3.9 13:28:36 10° N 13:34:51 71° E 13:41:00 10° S
Ariane H10+ 4.4 13:34:20 10° SW 13:36:28 12° SSW 13:37:58 10° S
Cosmos 2228 3.0 13:35:02 10° N 13:39:15 84° W 13:43:28 10° S
Cosmos 2227 4.1 13:37:29 10° S 13:43:02 66° ESE 13:48:36 10° NNE
Cosmos 1536 Rocket 3.4 13:40:10 10° S 13:44:27 78° E 13:48:47 10° N
BREEZE-M DEB (TANK) 1.8 13:47:33 10° SW 13:49:45 55° WSW 13:49:45 55° WSW
Resurs 01 Rocket 1.5 13:45:44 10° SSE 13:50:04 67° ENE 13:54:25 10° N
OAO 3 Rocket 3.3 13:45:23 10° SW 13:50:06 56° SE 13:52:00 33° E
YAOGAN 3 4.3 13:46:36 10° SSE 13:50:47 74° ENE 13:54:57 10° N
Fermi 3.9 13:48:13 10° WNW 13:52:00 51° NNE 13:52:52 41° ENE
Intelsat 5-1 Rocket 3.0 13:55:19 10° SW 13:57:59 20° SSE 13:57:59 20° SSE
Milstar 3 Cent rocket 3.8 13:52:27 10° SW 13:59:28 55° SE 14:06:44 28° E
Meteor 2-12 Rocket 4.3 13:56:41 10° S 14:02:45 85° E 14:08:52 10° N
Cosmos 2237 Rocket 4.2 14:01:56 10° NW 14:06:46 29° WSW 14:11:36 10° SSW
Cosmos 1782 4.1 14:04:27 10° NNW 14:07:43 35° W 14:10:58 10° SSW
Cosmos 2112 Rocket 4.3 14:07:24 10° S 14:11:48 45° ESE 14:11:48 45° ESE
Cosmos 1844 3.8 14:09:34 10° SSW 14:15:07 72° WNW 14:19:56 14° N
Cosmos 923 Rocket 4.0 14:10:10 10° SSW 14:15:19 80° WNW 14:19:02 19° N
NOSS 3-4 (A) 4.3 14:11:09 10° NNW 14:18:59 76° WSW 14:27:45 10° SSE
NOSS 3-4 (C) 4.3 14:11:27 10° NNW 14:19:18 77° WSW 14:28:04 10° SSE
Cosmos 1680 Rocket 3.3 14:15:01 10° S 14:20:14 77° ESE 14:21:11 59° NE
Cosmos 1544 Rocket 4.4 14:19:13 10° NNW 14:23:27 50° W 14:27:42 10° SSW
GPS 2-15 Rocket1 3.4 14:21:58 10° W 14:26:21 59° NNW 14:26:21 59° NNW
SL-4 R/B 3.9 14:28:00 10° SW 14:28:59 18° SW 14:28:59 18° SW
Celestis-02/Orion 38 4.4 14:32:00 85° N 14:32:00 85° N 14:37:01 10° NNW
Sylda 5 4.1 14:33:20 10° SW 14:35:18 19° SSW 14:35:18 19° SSW
SL-16 R/B 2.2 14:30:48 10° NNW 14:36:27 77° WSW 14:38:05 48° S
Cosmos 1844 Rocket 4.3 14:36:39 10° SW 14:41:40 33° WNW 14:46:41 10° N
SeaSat 1 4.3 14:41:02 10° SSW 14:45:10 28° WSW 14:49:20 10° NW
OAO 2 Rocket 4.5 14:47:25 10° WSW 14:50:29 38° WSW 14:50:29 38° WSW
Cosmos 1634 Rocket 4.3 14:52:38 10° NNW 14:58:48 62° W 15:04:54 10° S
USA 234 3.9 15:08:33 45° NNW 15:08:33 45° NNW 15:12:52 10° NW
Atlas Centaur 2 2.9 14:59:06 10° WNW 15:05:46 64° W 15:05:46 64° W
Longmarch 3A Rocket 4.4 22:06:55 43° ENE 22:06:55 43° ENE 22:18:21 10° ENE
Cosmos 2263 Rocket 4.4 22:36:31 10° NNE 22:40:41 21° ENE 22:44:48 10° ESE
FengYun 1-2 T 4.4 22:51:52 10° NNE 22:57:19 69° ESE 23:02:48 10° S
Cosmos 2123 Rocket 3.9 22:58:15 34° N 23:01:08 79° E 23:07:17 10° S
SL-16 R/B 2.3 23:02:10 51° S 23:03:33 72° ESE 23:09:10 10° NNE
Hubble Space Telescope 3.0 23:07:49 17° NE 23:07:49 17° NE 23:08:53 10° NE
Cosmos 1025 Rocket 4.4 23:04:33 20° NNE 23:06:59 37° E 23:10:58 10° SSE
MAQSAT/ARIANE V 4.1 23:05:23 33° SSW 23:07:11 39° SSE 23:30:51 10° ESE
Cosmos 1535 Rocket 4.4 23:02:27 10° S 23:08:49 75° W 23:15:11 10° N
UNK 4.1 23:13:37 10° SSE 23:18:02 59° ENE 23:21:15 18° N
Cosmos 1898 Rocket 3.6 23:13:48 10° S 23:19:01 73° ESE 23:24:17 10° NNE
Cosmos 2227 Rocket 2.0 23:20:22 59° NW 23:21:21 73° WSW 23:26:58 10° S
Cosmos 1937 Rocket 4.1 23:19:54 10° S 23:24:53 55° ESE 23:29:54 10° NNE
Cosmos 2208 Rocket 3.9 23:23:22 45° NNW 23:25:02 77° WSW 23:30:24 10° S
Cosmos 2333 Rocket 2.1 23:21:03 10° SSW 23:26:48 88° WNW 23:32:34 10° NNE
Cosmos 1300 Rocket 3.4 23:23:31 10° S 23:27:54 81° W 23:32:17 10° N
Cosmos 2219 Rocket 4.3 23:24:31 10° SSE 23:29:12 27° ESE 23:33:52 10° NE
Cosmos 2322 Rocket 2.5 23:25:24 10° S 23:31:00 66° ESE 23:36:37 10° NNE
Cosmos 1605 Rocket 4.2 23:26:39 10° SSW 23:32:45 48° W 23:38:51 10° N
Centaur D-1AR AC-48 3.7 23:35:37 13° SSW 23:35:37 13° SSW 23:36:58 10° S
CZ-4 R/B 4.2 23:33:31 10° NNE 23:38:24 66° ESE 23:43:13 10° S
Centaur Rocket 4.0 23:39:38 18° SE 23:39:38 18° SE 23:40:39 10° ESE
OAO 2 Rocket 3.6 23:38:11 44° WSW 23:39:08 50° SW 23:44:07 10° SE
Intelsat 5-3 Rocket 2.4 23:38:31 56° W 23:39:22 82° NNW 23:46:32 10° ENE
Delta 168 2.5 23:39:32 58° SSW 23:39:55 64° SSE 23:43:52 10° ENE
ATLAS 2A CENTAUR R/B 4.0 23:38:48 31° W 23:42:01 44° SW 23:46:17 10° SE
NOAA 12 4.0 23:40:13 10° N 23:45:28 67° WNW 23:50:43 10° SSW
Aurora 2 Rocket 3.0 23:43:54 37° NW 23:45:35 62° NNE 23:51:27 10° E
Cosmos 2221 Rocket 3.5 23:41:07 10° N 23:45:36 85° W 23:50:03 10° S
Delta 7925 Rocket 3.7 23:44:59 36° WNW 23:46:22 45° NNW 23:50:49 10° ENE
SL-16 R/B 3.5 23:41:29 10° SSW 23:45:31 25° WSW 23:45:31 25° WSW
GP-B 4.4 23:44:30 10° NNE 23:48:38 41° E 23:52:44 10° SSE
MINOTAUR IV R/B 4.5 23:45:46 10° NNW 23:50:15 89° WSW 23:54:44 10° SSE
Cosmos 1674 Rocket 4.1 23:51:48 34° W 23:51:48 34° W 23:55:37 10° SSW
